Location: St. Louis
(38.6270°N, 90.1994°W)
Time: 06:55:28
(UTC-05:00)

Hubble Space Telescope - Visible Passes

Search period start: 28 March 2023 00:00
Search period end: 07 April 2023 00:00
Orbit: 527 x 530 km, 28.5° (Epoch: 27 March)

Date Brightness Start Highest point End Pass type
(mag) Time Alt. Az. Time Alt. Az. Time Alt. Az.
30 Mar 3.3 21:13:12 10° SSW 21:13:24 11° SSW 21:13:24 11° SSW visible
31 Mar 2.8 20:59:01 10° SSW 21:00:38 15° S 21:00:38 15° S visible
01 Apr 2.5 20:44:53 10° SSW 20:47:34 17° S 20:47:46 17° SSE visible
02 Apr 2.5 20:30:48 10° SW 20:33:37 18° S 20:34:50 16° SSE visible
03 Apr 2.5 20:16:45 10° SW 20:19:39 19° S 20:21:50 13° SE visible
04 Apr 2.5 20:02:43 10° SW 20:05:40 19° S 20:08:36 10° SE visible
04 Apr 3.4 21:43:27 10° SW 21:43:55 12° SW 21:43:55 12° SW visible
05 Apr 2.6 19:48:43 10° SW 19:51:41 19° S 19:54:39 10° SE visible
05 Apr 3.1 21:29:39 10° SW 21:30:49 13° SSW 21:30:49 13° SSW visible
06 Apr 3.0 21:15:57 10° SW 21:17:43 13° SSW 21:17:43 13° SSW visible
